Regional Weather Roundup
Issued by NWS

Home | Current Version | Previous Version | Text Only | Print | Product List | Glossary On
Versions: 1 2 3 4 5 6 7 8 9 10 11 12 13 14 15 16 17 18 19 20 21 22 23 24 25 26 27 28 29 30 31 32 33 34 35 36 37 38 39 40 41 42 43 44 45 46 47 48 49 50
000
ASUS43 KBIS 240731
RWRND
NORTH DAKOTA REGIONAL WEATHER ROUNDUP
NATIONAL WEATHER SERVICE EASTERN NORTH DAKOTA/GRAND FORKS ND
200 AM CDT SAT JUN 24 2017

  NOTE: "FAIR" INDICATES FEW OR NO CLOUDS BELOW 12,000 FEET WITH NO
  SIGNIFICANT WEATHER AND/OR OBSTRUCTIONS TO VISIBILITY.

NDZ001>003-009>011-017-240800-
...NORTHWEST NORTH DAKOTA...

CITY           SKY/WX    TMP DP  RH WIND       PRES   REMARKS
WILLISTON      MOCLDY    50  37  61 NW12      30.17S
MINOT          FAIR      48  43  82 W15       30.08S
MINOT AFB      FAIR      45  42  88 NW12      30.08R
$$

NDZ018>021-031>035-040>046-240800-
...SOUTHWEST NORTH DAKOTA...

CITY           SKY/WX    TMP DP  RH WIND       PRES   REMARKS
BISMARCK       FAIR      48  38  68 SW5       30.10S
DICKINSON      FAIR      44  31  60 W9        30.13F
GARRISON         N/A     47  43  86 NW10      30.10S
HETTINGER      MOCLDY    42  31  64 W5        30.18F
$$

NDZ004>008-012>016-024-026-027-054-240800-
...NORTHEAST NORTH DAKOTA...

CITY           SKY/WX    TMP DP  RH WIND       PRES   REMARKS
GRAND FORKS    FAIR      49  42  77 W8        29.97S
GRAND FORKS AF FAIR      48  41  76 NW7       29.98S
DEVILS LAKE    FAIR      50  40  68 NW12      30.01F
$$

NDZ022-023-025-028>030-036>039-047>053-240800-
...SOUTHEAST NORTH DAKOTA...

CITY           SKY/WX    TMP DP  RH WIND       PRES   REMARKS
JAMESTOWN      FAIR      47  39  74 W8        30.04S
FARGO          FAIR      48  39  71 W8        30.00S
WAHPETON       FAIR      45  37  76 W7        30.02S
$$




USA.gov is the U.S. government's official web portal to all federal, state and local government web resources and services.